Messages
logo

Welcome to Perpetual Archive, a project to automatically archive and share YouTube Channels at maximum quality, as an alternative to incremental torrents.


Site Feedback Survey, Greatly Appreciated


Google Map Of Unique Visitors as of Dec 14 2019

Folder
Up
0 folders, 153 files, 21.6 MBytes
Select

0 items selected

Actions
Get list
Server information Server time: 8/7/2020 8:25:37 PM Server uptime: (43 days) 16:56:21

Have a channel request, link to something I'm missing, or takedown request?


Contact Me Here

Want to donate to the project to help buy more storage or pay for power?


BTC:

1Gm74eQn7yeqJsyHS6fuM1gizjgsyPhAqY


Liberapay

Name.extension Size Timestamp Hits
20120319 - Photonicinduction.jpg 48.3 KB10/24/2018 2:18:25 AM9
20120321 - Erase CD with HV + DVD.jpg 31.1 KB10/24/2018 2:18:11 AM17
20120323 - Bonkers Conkers.jpg 58.4 KB10/24/2018 2:16:48 AM10
20120323 - Fastest Kettle Boil + Pop.jpg 49.5 KB10/24/2018 2:17:18 AM11
20120323 - Over Current On Industrial Fuse.jpg 92.3 KB10/24/2018 2:17:48 AM8
20120323 - Photonicinduction Makes Cake.jpg 166.5 KB10/24/2018 2:17:55 AM9
20120323 - TV Assisted Suicide.jpg 90.3 KB10/24/2018 2:17:12 AM6
20120324 - Big Boys Power Supply.jpg 64.8 KB10/24/2018 2:16:17 AM12
20120324 - Coconuts Explode Using Electricity.jpg 98.5 KB10/24/2018 2:15:30 AM10
20120324 - Computer and TV Microwaved While On.jpg 98.3 KB10/24/2018 2:14:56 AM5
20120324 - Electric Wheelchair Mayhem.jpg 68.0 KB10/24/2018 2:15:22 AM6
20120324 - Health And Safety Common Sense.jpg 50.3 KB10/24/2018 2:15:14 AM5
20120324 - Vacuum Cleaner Sucks Up Petrol.jpg 139.0 KB10/24/2018 2:15:54 AM8
20120325 - Extreme Marbles.jpg 56.4 KB10/24/2018 2:14:49 AM12
20120326 - Computer Skills.jpg 106.1 KB10/24/2018 2:14:14 AM9
20120326 - HD and Motor Speaker.jpg 52.8 KB10/24/2018 2:13:57 AM7
20120326 - Too Much Current + Electric Meter Pops.jpg 60.5 KB10/24/2018 2:14:29 AM8
20120326 - Ultra High Energy Destruction + Can Crush.jpg 62.6 KB10/24/2018 2:13:38 AM7
20120327 - Clothes Iron Meltdown.jpg 73.5 KB10/24/2018 2:12:23 AM10
20120328 - 12 kW Halide Lamp.jpg 134.9 KB10/24/2018 2:11:08 AM6
20120328 - 300Kv On A Television.jpg 55.1 KB10/24/2018 2:10:13 AM11
20120328 - Cheap Backup Power.jpg 179.6 KB10/24/2018 2:10:38 AM9
20120330 - Camcorder And Lamp In Microwave.jpg 71.8 KB10/24/2018 2:09:20 AM7
20120330 - Extreme Speed Electric Motors.jpg 65.5 KB10/24/2018 2:09:54 AM9
20120330 - Fun With Arc Lamps.jpg 48.4 KB10/24/2018 2:08:30 AM10
20120330 - Naughty Boy's Electromagnet.jpg 98.0 KB10/24/2018 2:09:33 AM5
20120331 - Corona Wind.jpg 95.8 KB10/24/2018 2:08:21 AM6
20120402 - 200KV On A Grow Lamp.jpg 54.3 KB10/24/2018 2:07:04 AM9
20120402 - 240v-440v.jpg 70.9 KB10/24/2018 2:06:32 AM5
20120402 - Bigger Variac and Load Test.jpg 40.4 KB10/24/2018 2:07:39 AM9
20120402 - Variac Overdrive.jpg 49.5 KB10/24/2018 2:07:55 AM8
20120403 - Creme Eggs Shoot Their Goo.jpg 34.7 KB10/24/2018 2:06:26 AM9
20120409 - 50,000 Amp Transformer Completed.jpg 45.4 KB10/24/2018 2:05:21 AM10
20120409 - Building A Monster High Current Transformer.jpg 76.0 KB10/24/2018 2:05:36 AM6
20120409 - Extreme Speed Record Player.jpg 50.0 KB10/24/2018 2:04:50 AM7
20120409 - Plasma Ball Overload.jpg 63.9 KB10/24/2018 2:04:59 AM12
20120410 - Light Switch and MCB Explode.jpg 54.9 KB10/24/2018 2:04:34 AM6
20120411 - Random Smash and Bangs.jpg 103.5 KB10/24/2018 2:04:05 AM8
20120412 - Light Bulb Overload Remix.jpg 107.8 KB10/24/2018 2:03:51 AM7
20120414 - CRT Overdrive.jpg 174.6 KB10/24/2018 2:02:42 AM10
20120414 - Hair Dryer Combustion Test.jpg 104.4 KB10/24/2018 2:03:25 AM5
20120414 - Mad Science 500 keV.jpg 81.8 KB10/24/2018 2:02:50 AM5
20120414 - Triple Pop.jpg 92.9 KB10/24/2018 2:02:04 AM8
20120414 - Vibrator Overvolt.jpg 120.1 KB10/24/2018 2:03:05 AM8
20120415 - Argon Laser Meltdown.jpg 171.0 KB10/24/2018 2:01:41 AM9
20120415 - Ignition Tests With Lasers & HV.jpg 56.8 KB10/24/2018 2:01:07 AM6
20120416 - If Photon Made Adverts.jpg 106.2 KB10/24/2018 2:00:43 AM7
20120416 - Photon Bonding With The Neighbours.jpg 96.9 KB10/24/2018 2:00:49 AM7
20120417 - Leaf Blower Fun + Weather Balloon Pop.jpg 123.4 KB10/24/2018 2:00:36 AM4
20120417 - Phone & Helicopter Zap.jpg 75.9 KB10/24/2018 2:00:28 AM9
20120418 - Big Capacitor Safety.jpg 112.5 KB10/24/2018 2:00:04 AM9
20120427 - 75w HID Torch.jpg 251.2 KB10/24/2018 1:59:32 AM7
20120501 - Motor Inverters.jpg 146.0 KB10/24/2018 1:59:01 AM9
20120502 - Arc Welders.jpg 100.9 KB10/24/2018 1:58:34 AM5
20120502 - Car Battery Test.jpg 238.9 KB10/24/2018 1:58:22 AM12
20120505 - Fire And Ice.jpg 148.3 KB10/24/2018 1:56:33 AM9
20120505 - Food Mixer Burn Out.jpg 113.0 KB10/24/2018 1:57:40 AM12
20120505 - Hot Potential Divider.jpg 133.0 KB10/24/2018 1:56:56 AM8
20120505 - Old Rectifiers.jpg 63.2 KB10/24/2018 1:57:59 AM10
20120506 - 1100 Amp Extreme MOT.jpg 171.2 KB10/24/2018 1:54:42 AM6
20120506 - Clock Radio And Toy Rabbit Pop.jpg 202.6 KB10/24/2018 1:55:12 AM7
20120506 - Dishwasher Problems.jpg 184.9 KB10/24/2018 1:55:27 AM8
20120506 - Extreme Toaster And Egg Tests.jpg 127.0 KB10/24/2018 1:56:07 AM8
20120507 - Electronics Overloaded.jpg 137.0 KB10/24/2018 1:54:33 AM8
20120507 - Hot Wire Foam Cutter.jpg 108.2 KB10/24/2018 1:54:12 AM6
20120509 - Monster Jacob's Ladder 200,000 Volts.jpg 184.3 KB10/24/2018 1:53:32 AM9
20120511 - Heating Elements Pop On 440v.jpg 214.7 KB10/24/2018 1:53:13 AM8
20120512 - Photon Meets TheManLab7.jpg 131.5 KB10/24/2018 1:52:44 AM7
20120515 - Big Battery Hack.jpg 186.9 KB10/24/2018 1:51:46 AM11
20120515 - Cordless Drill Battery Fix.jpg 218.5 KB10/24/2018 1:51:23 AM7
20120515 - High Voltage Naughty Boy Time.jpg 144.2 KB10/24/2018 1:52:17 AM10
20120516 - Hot Induction Loop.jpg 128.3 KB10/24/2018 1:50:56 AM10
20120521 - Easy Coil Gun + Melon Pop.jpg 82.3 KB10/24/2018 1:50:39 AM9
20120613 - 5000 Amp Fuse + Tools Melt With High Current.jpg 168.2 KB10/24/2018 1:50:25 AM12
20120615 - What Were Those 3 Dots .jpg 97.9 KB10/24/2018 1:49:34 AM6
20120709 - Air Ioniser Up In Flames.jpg 196.2 KB10/24/2018 1:49:24 AM8
20120719 - More Washing Machine Madness.jpg 130.7 KB10/24/2018 1:49:09 AM13
20120727 - Photon's Thunderstorm Capacitor.jpg 73.9 KB10/24/2018 1:48:47 AM7
20120805 - The Ultimate Fly Killer.jpg 161.6 KB10/24/2018 1:48:40 AM6
20121013 - Selenium Carbon Arc Rectifier.jpg 58.8 KB10/24/2018 1:47:59 AM10
20121028 - Kent Motor Tug Trip.jpg 157.6 KB10/24/2018 1:47:13 AM12
20121102 - Useful Contactor and Delay.jpg 39.5 KB10/24/2018 1:46:58 AM6
20121106 - Inside A Miele 6055 Washing Machine.jpg 119.5 KB10/24/2018 1:46:29 AM9
20121118 - State Of Matter.jpg 86.8 KB10/24/2018 1:46:00 AM8
20121123 - Exposed Free Energy Magnet Motor.jpg 44.5 KB10/24/2018 1:45:33 AM8
20130219 - High Voltage With High Current.jpg 143.8 KB10/24/2018 1:45:06 AM11
20130220 - Huge Light Bulb.jpg 153.7 KB10/24/2018 1:44:51 AM8
20130222 - The Original Washing Machine Self Destructs.jpg 175.4 KB10/24/2018 1:44:46 AM9
20130305 - Extreme Dyson Test.jpg 230.2 KB10/24/2018 1:44:05 AM6
20130319 - Generating X rays.jpg 171.0 KB10/24/2018 1:43:50 AM13
20130320 - Camera Rotor Test.jpg 134.6 KB10/24/2018 1:42:46 AM9
20130320 - Christmas Lights Overload.jpg 284.3 KB10/24/2018 1:43:12 AM9
20130320 - Current Cake.jpg 138.6 KB10/24/2018 1:43:31 AM8
20130321 - Death Wand On Circuit Board.jpg 245.0 KB10/24/2018 1:42:32 AM6
20130330 - BoomBoxDeluxe Visits Mr Photon.jpg 207.2 KB10/24/2018 1:41:55 AM8
20130404 - Motor And PCB Pop.jpg 208.7 KB10/24/2018 1:41:29 AM9
20130405 - Easy Electrical Project (with overload).jpg 78.8 KB10/24/2018 1:40:51 AM3
20130407 - Electricians Playtime.jpg 169.7 KB10/24/2018 1:40:11 AM9
20130503 - Inside The High Voltage Transformer.jpg 259.6 KB10/24/2018 1:39:57 AM6
20130504 - Bright Entertainment.jpg 202.6 KB10/24/2018 1:39:03 AM7
20130504 - Electronic v Magnetic Ballast.jpg 103.6 KB10/24/2018 1:39:41 AM7
20130508 - Industrial Fuses.jpg 185.2 KB10/24/2018 1:38:47 AM6
20130510 - Pyroman1990 Visits Photon.jpg 246.7 KB10/24/2018 1:38:14 AM8
20130531 - 300kv Transformer Repaired.jpg 182.2 KB10/24/2018 1:37:51 AM7
20130601 - Mercury Arc Rectifier.jpg 105.3 KB10/24/2018 1:37:36 AM7
20130615 - Killer Screwdriver.jpg 205.8 KB10/24/2018 1:37:14 AM5
20130628 - Most Powerful Torch 2.1kW.jpg 212.4 KB10/24/2018 1:37:05 AM7
20130712 - ExperiMental 4D TV Old Style Photon.jpg 178.1 KB10/24/2018 1:36:53 AM7
20131224 - Quick Happy Christmas.jpg 80.5 KB10/24/2018 1:36:40 AM7
20131230 - Extreme Speaker Test 21' Driver Pop.jpg 250.9 KB10/24/2018 1:36:09 AM6
20140108 - LED Retrofit.jpg 180.1 KB10/24/2018 1:34:58 AM10
20140120 - High Voltage Playing Safely.jpg 236.9 KB10/24/2018 1:34:38 AM8
20140125 - LED Lamp Blasted With 6000 Volts.jpg 306.4 KB10/24/2018 1:34:14 AM10
20140203 - 8 in 1 Lamp Fun With CrazySparkie63.jpg 164.6 KB10/24/2018 1:33:33 AM8
20140304 - Quickie - Electric Go Kart Fun.jpg 181.1 KB10/24/2018 1:33:22 AM8
20140312 - Exploding Resistors (slow mo).jpg 23.5 KB10/24/2018 1:33:08 AM11
20140317 - Extreme Speed Hand Sewing Machine.jpg 80.1 KB10/24/2018 1:32:35 AM8
20140406 - UK Street Lights Off At Night.jpg 74.2 KB10/24/2018 1:32:21 AM11
20140421 - Photon's Mystery Motorway Drive.jpg 223.3 KB10/24/2018 1:31:34 AM9
20140914 - 20,000 Watt Power Supply.jpg 194.2 KB10/24/2018 1:30:46 AM5
20140930 - Welcome to Chapter 2.jpg 310.7 KB10/24/2018 1:30:02 AM9
20141004 - Photonicinduction's Channel Trailer.jpg 216.0 KB10/24/2018 1:29:47 AM7
20141017 - 10 Second Toaster.jpg 189.3 KB10/24/2018 1:29:21 AM11
20141022 - 10 Second Kettle.jpg 209.0 KB10/24/2018 1:29:07 AM6
20141030 - Extreme Iron Test.jpg 236.8 KB10/24/2018 1:28:50 AM8
20141107 - November 5th Sandwich Toaster + Overload.jpg 275.2 KB10/24/2018 1:28:31 AM6
20141107 - Photon Uncut Bonus Bits 1.jpg 280.1 KB10/24/2018 1:27:55 AM9
20150130 - Easyjumper Starts V8 5L Merc !.jpg 200.7 KB10/24/2018 1:27:24 AM7
20150307 - Dino's Troublesome Tablet Gets Fried.jpg 194.6 KB10/24/2018 1:26:55 AM7
20150307 - Microwave Overclocked.jpg 85.1 KB10/24/2018 1:26:36 AM12
20150615 - 100 Watt Laser Blasts Phone.jpg 183.1 KB10/24/2018 1:26:21 AM7
20150621 - Nd YAG Laser Strip Down.jpg 189.7 KB10/24/2018 1:25:49 AM7
20150704 - Elements with too Much Voltage.jpg 206.7 KB10/24/2018 1:25:37 AM6
20150704 - Lawn Mower Torture.jpg 246.1 KB10/24/2018 1:25:19 AM10
20150718 - 30kW and 4kW Xenon Lamps Get Tested on a DC Welder.jpg 193.6 KB10/24/2018 1:24:30 AM6
20150718 - Xenon Short Arc Lamp Ignition.jpg 224.3 KB10/24/2018 1:24:58 AM8
20150929 - Touching The Tesla Coil.jpg 224.1 KB10/24/2018 1:24:08 AM5
20151018 - 20,000 Amp Breaker Switch.jpg 324.5 KB10/24/2018 1:23:34 AM7
20151019 - Overclocked Electric Mobility Scooter.jpg 210.8 KB10/24/2018 1:22:52 AM7
20160523 - Wireless Power Cube.jpg 195.2 KB10/24/2018 1:22:39 AM8
20160530 - Ballistic Gel Vs Electricity.jpg 202.2 KB10/24/2018 1:22:07 AM11
20160612 - Wireless 240v Power Cube Reveal.jpg 322.9 KB10/24/2018 1:21:45 AM8
20160618 - Until it Pops - Vacuum Cleaner.jpg 245.3 KB10/24/2018 1:21:33 AM9
20160624 - Until it Pops - 1000 Watt Light Bulb.jpg 187.1 KB10/24/2018 1:21:20 AM9
20160702 - Until it Pops - Mitre Saw.jpg 277.5 KB10/24/2018 1:21:00 AM10
20160710 - Boiling water inside a light bulb.jpg 215.5 KB10/24/2018 1:20:47 AM5
20160717 - 20,000 Watt Light Bulb Test.jpg 256.7 KB10/24/2018 1:20:33 AM5
20160731 - Steel Chain VS Electrical Current.jpg 202.3 KB10/24/2018 1:20:01 AM6
20161028 - Enlightened Pumpkin.jpg 100.0 KB10/24/2018 1:19:47 AM6
20161028 - What Happens When A New £5 Note Gets Warm .jpg 104.9 KB10/24/2018 1:19:43 AM9
20170326 - Until it Pops - 2 Bar Electric Fire.jpg 120.5 KB10/24/2018 1:19:25 AM7
20170402 - Don't Poke a Lithium Polymer Cell.jpg 100.7 KB10/24/2018 1:19:19 AM6
20170409 - Over Powered Car Radiator Fan.jpg 141.3 KB10/24/2018 1:19:01 AM6